UAL2LM KJFK-EDDF

Flight info

Callsign UAL2LM
Flight time N/A
Altitude 33000
Route GREKI DCT JUDDS DCT MARTN DCT EBONY N567B TUDEP/M084F340 DCT 52N050W 54N040W 55N030W 55N020W DCT DOGAL DCT BEXET/N0483F350 DCT MORAG DCT NUCHU L607 KONAN DCT KOK UL607 FERDI DCT REMBA DCT SPI T180 NIVNU T847 IMCOM IMCOM1D
Aircraft B77W/H-SDE1E2E3FGHIJ2J3J4J5M1RWXY/LB1D1

Departure

Time 2026-05-08 11:56
Airport John F. Kennedy International Airport (KJFK)

Arrival

Time N/A
Airport Frankfurt Main Airport (EDDF)
Time Latitude Longitude Altitude Speed Heading
2026-05-08 11:24 40.64018 -73.78063 25 ft 0 kts 247°
2026-05-08 11:40 40.64019 -73.78060 29 ft 2 kts 247°
2026-05-08 11:40 40.64029 -73.78029 31 ft 4 kts 250°
2026-05-08 11:40 40.64036 -73.78009 31 ft 4 kts 226°
2026-05-08 11:40 40.64045 -73.78000 31 ft 2 kts 223°
2026-05-08 11:41 40.64057 -73.77987 31 ft 4 kts 186°
2026-05-08 11:41 40.64072 -73.77991 31 ft 4 kts 148°
2026-05-08 11:41 40.64091 -73.78007 31 ft 1 kts 151°
2026-05-08 11:41 40.64094 -73.78009 31 ft 0 kts 151°
2026-05-08 11:45 40.64089 -73.78005 31 ft 2 kts 150°
2026-05-08 11:45 40.64072 -73.77991 31 ft 3 kts 148°
2026-05-08 11:46 40.64052 -73.77976 29 ft 3 kts 151°
2026-05-08 11:46 40.64031 -73.77963 31 ft 4 kts 159°
2026-05-08 11:46 40.64000 -73.77951 31 ft 6 kts 165°
2026-05-08 11:46 40.63950 -73.77937 28 ft 9 kts 169°
2026-05-08 11:47 40.63879 -73.77919 30 ft 12 kts 169°
2026-05-08 11:47 40.63785 -73.77905 28 ft 15 kts 179°
2026-05-08 11:47 40.63675 -73.77895 28 ft 17 kts 163°
2026-05-08 11:47 40.63563 -73.77839 29 ft 17 kts 168°
2026-05-08 11:48 40.63449 -73.77873 30 ft 17 kts 206°
2026-05-08 11:48 40.63340 -73.77942 31 ft 17 kts 206°
2026-05-08 11:48 40.63235 -73.78009 28 ft 17 kts 209°
2026-05-08 11:48 40.63216 -73.78146 32 ft 17 kts 308°
2026-05-08 11:49 40.63318 -73.78224 27 ft 17 kts 341°
2026-05-08 11:49 40.63422 -73.78296 26 ft 17 kts 317°
2026-05-08 11:49 40.63493 -73.78422 26 ft 17 kts 302°
2026-05-08 11:49 40.63553 -73.78559 27 ft 17 kts 300°
2026-05-08 11:50 40.63612 -73.78696 27 ft 17 kts 299°
2026-05-08 11:50 40.63671 -73.78834 27 ft 17 kts 299°
2026-05-08 11:50 40.63730 -73.78972 31 ft 17 kts 299°
2026-05-08 11:50 40.63791 -73.79105 30 ft 17 kts 303°
2026-05-08 11:51 40.63856 -73.79238 27 ft 17 kts 303°
2026-05-08 11:51 40.63919 -73.79367 31 ft 17 kts 303°
2026-05-08 11:51 40.63985 -73.79503 31 ft 17 kts 302°
2026-05-08 11:51 40.64040 -73.79643 31 ft 17 kts 298°
2026-05-08 11:52 40.64104 -73.79777 26 ft 17 kts 304°
2026-05-08 11:52 40.64174 -73.79905 30 ft 17 kts 311°
2026-05-08 11:52 40.64253 -73.80024 29 ft 17 kts 311°
2026-05-08 11:52 40.64321 -73.80154 30 ft 17 kts 301°
2026-05-08 11:53 40.64384 -73.80289 30 ft 17 kts 301°
2026-05-08 11:53 40.64447 -73.80423 30 ft 17 kts 301°
2026-05-08 11:53 40.64509 -73.80558 30 ft 17 kts 301°
2026-05-08 11:53 40.64568 -73.80684 31 ft 0 kts 301°
2026-05-08 11:54 40.64571 -73.80690 31 ft 4 kts 301°
2026-05-08 11:54 40.64590 -73.80730 31 ft 5 kts 301°
2026-05-08 11:54 40.64609 -73.80771 31 ft 5 kts 301°
2026-05-08 11:54 40.64639 -73.80838 31 ft 17 kts 301°
2026-05-08 11:55 40.64720 -73.81023 31 ft 25 kts 298°
2026-05-08 11:55 40.64788 -73.81180 30 ft 17 kts 300°
2026-05-08 11:55 40.64831 -73.81311 29 ft 16 kts 278°
2026-05-08 11:55 40.64761 -73.81397 28 ft 16 kts 172°
2026-05-08 11:56 40.64601 -73.81115 29 ft 81 kts 120°
2026-05-08 11:56 40.64147 -73.80122 28 ft 171 kts 118°
2026-05-08 11:56 40.63584 -73.78403 41 ft 239 kts 110°
2026-05-08 11:56 40.63027 -73.76214 1130 ft 247 kts 110°
2026-05-08 11:57 40.62156 -73.74172 2198 ft 260 kts 117°
2026-05-08 11:57 40.61757 -73.71887 3527 ft 258 kts 81°
2026-05-08 11:57 40.62369 -73.69747 4395 ft 248 kts 45°
2026-05-08 11:57 40.63760 -73.68526 4940 ft 243 kts
2026-05-08 11:58 40.65469 -73.68582 4971 ft 249 kts 334°
2026-05-08 11:58 40.66783 -73.69958 5016 ft 245 kts 301°
2026-05-08 11:58 40.67666 -73.71878 5012 ft 248 kts 307°
2026-05-08 11:59 40.70749 -73.73510 5022 ft 261 kts 13°
2026-05-08 11:59 40.72329 -73.72319 5036 ft 269 kts 40°
2026-05-08 11:59 40.73653 -73.70584 5094 ft 264 kts 34°
2026-05-08 11:59 40.75241 -73.69473 4942 ft 261 kts 15°
2026-05-08 12:00 40.76949 -73.68702 5186 ft 257 kts 15°
2026-05-08 12:00 40.78642 -73.67908 5831 ft 260 kts 15°
2026-05-08 12:00 40.80359 -73.67081 6506 ft 266 kts 15°
2026-05-08 12:00 40.82110 -73.66220 7138 ft 273 kts 15°
2026-05-08 12:01 40.83955 -73.65302 7374 ft 296 kts 16°
2026-05-08 12:01 40.85872 -73.64330 7922 ft 306 kts 16°
2026-05-08 12:01 40.87909 -73.63278 8837 ft 305 kts 16°
2026-05-08 12:01 40.89843 -73.62269 9741 ft 305 kts 15°
2026-05-08 12:02 40.91788 -73.61250 10555 ft 303 kts 15°
2026-05-08 12:02 40.93804 -73.60191 11416 ft 300 kts 15°
2026-05-08 12:02 40.95709 -73.59188 12253 ft 296 kts 14°
2026-05-08 12:02 40.97576 -73.58202 13102 ft 291 kts 14°
2026-05-08 12:03 40.99431 -73.57221 13946 ft 283 kts 13°
2026-05-08 12:03 41.01225 -73.56270 14712 ft 273 kts 12°
2026-05-08 12:03 41.02966 -73.55347 15399 ft 265 kts 12°
2026-05-08 12:03 41.04691 -73.54440 15784 ft 269 kts 11°
2026-05-08 12:04 41.06464 -73.53515 16019 ft 280 kts 12°
2026-05-08 12:04 41.08299 -73.52553 16393 ft 284 kts 12°
2026-05-08 12:04 41.10163 -73.51572 16699 ft 293 kts 12°
2026-05-08 12:04 41.12088 -73.50560 16999 ft 303 kts 12°
2026-05-08 12:05 41.14084 -73.49507 17319 ft 313 kts 12°
2026-05-08 12:05 41.16138 -73.48421 17636 ft 325 kts 12°
2026-05-08 12:05 41.18283 -73.47285 17957 ft 337 kts 13°
2026-05-08 12:05 41.20494 -73.46113 18287 ft 349 kts 13°
2026-05-08 12:06 41.22793 -73.44891 18568 ft 362 kts 13°
2026-05-08 12:06 41.25171 -73.43627 18844 ft 375 kts 13°
2026-05-08 12:06 41.27620 -73.42321 19131 ft 387 kts 13°
2026-05-08 12:06 41.30105 -73.40994 19403 ft 400 kts 13°
2026-05-08 12:07 41.32740 -73.39586 19692 ft 412 kts 14°
2026-05-08 12:07 41.35420 -73.38150 19972 ft 424 kts 14°
2026-05-08 12:07 41.38208 -73.36656 20261 ft 436 kts 14°
2026-05-08 12:07 41.41055 -73.35131 20543 ft 444 kts 14°
2026-05-08 12:08 41.42961 -73.34109 20720 ft 447 kts 14°
2026-05-08 12:08 41.44967 -73.32997 20904 ft 451 kts 17°
2026-05-08 12:08 41.47766 -73.30951 21139 ft 461 kts 26°
2026-05-08 12:08 41.50363 -73.28375 21417 ft 469 kts 34°
2026-05-08 12:09 41.50956 -73.27680 21471 ft 471 kts 36°
2026-05-08 12:09 41.53037 -73.24901 21658 ft 463 kts 40°
2026-05-08 12:09 41.55259 -73.21815 21893 ft 454 kts 39°
2026-05-08 12:09 41.57455 -73.18837 22132 ft 446 kts 38°
2026-05-08 12:10 41.59652 -73.15911 22429 ft 447 kts 37°
2026-05-08 12:10 41.61995 -73.13327 22682 ft 439 kts 21°
2026-05-08 12:10 41.64803 -73.11855 23023 ft 427 kts
2026-05-08 12:10 41.67749 -73.11413 23345 ft 419 kts 349°
2026-05-08 12:11 41.70595 -73.11789 23633 ft 419 kts 344°
2026-05-08 12:11 41.73504 -73.12325 23884 ft 426 kts 343°
2026-05-08 12:11 41.76466 -73.12890 24146 ft 434 kts 343°
2026-05-08 12:11 41.79495 -73.13459 24398 ft 440 kts 344°
2026-05-08 12:12 41.82527 -73.14007 24644 ft 440 kts 344°
2026-05-08 12:12 41.85565 -73.14537 24886 ft 441 kts 344°
2026-05-08 12:12 41.88605 -73.15058 25116 ft 442 kts 344°
2026-05-08 12:12 41.91670 -73.15580 25365 ft 443 kts 344°
2026-05-08 12:13 41.94736 -73.16102 25608 ft 444 kts 344°
2026-05-08 12:13 41.97804 -73.16624 25856 ft 446 kts 344°
2026-05-08 12:13 42.00888 -73.17149 26117 ft 447 kts 344°
2026-05-08 12:13 42.03991 -73.17679 26383 ft 450 kts 344°
2026-05-08 12:14 42.07097 -73.18210 26641 ft 452 kts 344°
2026-05-08 12:14 42.10237 -73.18748 26912 ft 455 kts 344°
2026-05-08 12:14 42.13360 -73.19283 27182 ft 457 kts 344°
2026-05-08 12:14 42.16497 -73.19822 27449 ft 459 kts 344°
2026-05-08 12:15 42.19689 -73.20369 27718 ft 461 kts 344°
2026-05-08 12:15 42.22764 -73.20898 27955 ft 463 kts 344°
2026-05-08 12:15 42.26057 -73.21465 28248 ft 465 kts 344°
2026-05-08 12:15 42.29254 -73.22013 28534 ft 466 kts 344°
2026-05-08 12:16 42.32512 -73.22573 28841 ft 468 kts 344°
2026-05-08 12:16 42.35774 -73.23136 29137 ft 471 kts 344°
2026-05-08 12:16 42.39018 -73.23696 29430 ft 473 kts 344°
2026-05-08 12:16 42.42304 -73.24264 29717 ft 475 kts 344°
2026-05-08 12:17 42.45567 -73.24829 30017 ft 476 kts 344°
2026-05-08 12:17 42.48877 -73.25401 30249 ft 477 kts 344°
2026-05-08 12:17 42.52180 -73.25730 30446 ft 486 kts 355°
2026-05-08 12:17 42.55522 -73.24861 30679 ft 507 kts 12°
2026-05-08 12:18 42.58717 -73.22632 30948 ft 525 kts 29°
2026-05-08 12:18 42.61499 -73.19235 31205 ft 541 kts 46°
2026-05-08 12:18 42.63560 -73.14997 31448 ft 547 kts 56°
2026-05-08 12:18 42.65403 -73.10495 31730 ft 547 kts 57°
2026-05-08 12:19 42.67200 -73.05947 31997 ft 549 kts 58°
2026-05-08 12:19 42.69005 -73.01368 32233 ft 549 kts 57°
2026-05-08 12:19 42.70830 -72.96799 32473 ft 549 kts 57°
2026-05-08 12:19 42.72682 -72.92245 32742 ft 549 kts 57°
2026-05-08 12:20 42.74550 -72.87713 32888 ft 552 kts 56°
2026-05-08 12:20 42.76456 -72.83129 32917 ft 554 kts 56°
2026-05-08 12:20 42.80265 -72.73991 32933 ft 552 kts 56°
2026-05-08 12:21 42.84016 -72.64945 32935 ft 548 kts 56°
2026-05-08 12:21 42.87757 -72.55882 32922 ft 547 kts 57°
2026-05-08 12:22 42.91480 -72.46824 32926 ft 547 kts 57°
2026-05-08 12:22 42.95183 -72.37788 32958 ft 547 kts 57°
2026-05-08 12:23 42.98900 -72.28691 32939 ft 547 kts 57°
2026-05-08 12:23 43.02566 -72.19690 32928 ft 547 kts 57°
2026-05-08 12:24 43.06270 -72.10567 32932 ft 547 kts 57°
2026-05-08 12:24 43.09958 -72.01452 32914 ft 547 kts 57°
2026-05-08 12:25 43.13639 -71.92329 32906 ft 547 kts 58°
2026-05-08 12:25 43.17298 -71.83230 32898 ft 546 kts 58°
2026-05-08 12:26 43.20953 -71.74114 32905 ft 546 kts 58°
2026-05-08 12:26 43.24609 -71.64963 32904 ft 545 kts 58°
2026-05-08 12:27 43.28245 -71.55837 32906 ft 545 kts 58°
2026-05-08 12:27 43.31873 -71.46700 32909 ft 545 kts 58°
2026-05-08 12:28 43.35501 -71.37535 32901 ft 545 kts 58°
2026-05-08 12:28 43.39114 -71.28376 32878 ft 545 kts 58°
2026-05-08 12:29 43.42717 -71.19214 32884 ft 544 kts 59°
2026-05-08 12:29 43.46296 -71.10083 32879 ft 544 kts 59°
2026-05-08 12:30 43.49884 -71.00900 32878 ft 544 kts 59°
2026-05-08 12:30 43.53464 -70.91709 32880 ft 544 kts 59°
2026-05-08 12:31 43.57017 -70.82556 32879 ft 543 kts 59°
2026-05-08 12:31 43.59982 -70.74895 32883 ft 543 kts 59°
2026-05-08 12:32 43.63514 -70.65742 32877 ft 542 kts 60°
2026-05-08 12:32 43.67064 -70.56514 32876 ft 541 kts 60°
2026-05-08 12:33 43.70591 -70.47315 32875 ft 541 kts 60°
2026-05-08 12:33 43.74103 -70.38124 32885 ft 541 kts 60°
2026-05-08 12:34 43.77604 -70.28934 32877 ft 541 kts 60°
2026-05-08 12:34 43.81107 -70.19708 32874 ft 540 kts 60°
2026-05-08 12:35 43.84560 -70.10583 32880 ft 540 kts 60°
2026-05-08 12:35 43.88069 -70.01278 32880 ft 539 kts 61°
2026-05-08 12:36 43.91517 -69.92106 32881 ft 539 kts 61°
2026-05-08 12:36 43.94971 -69.82886 32872 ft 539 kts 61°
2026-05-08 12:37 43.98428 -69.73631 32871 ft 539 kts 61°
2026-05-08 12:37 44.01864 -69.64398 32872 ft 539 kts 62°
2026-05-08 12:38 44.05295 -69.55150 32865 ft 539 kts 62°
2026-05-08 12:38 44.08723 -69.45877 32858 ft 539 kts 62°
2026-05-08 12:39 44.12145 -69.36590 32854 ft 539 kts 62°
2026-05-08 12:39 44.15551 -69.27317 32853 ft 539 kts 62°
2026-05-08 12:40 44.18968 -69.17982 32856 ft 540 kts 63°
2026-05-08 12:40 44.22366 -69.08667 32847 ft 540 kts 63°
2026-05-08 12:41 44.25743 -68.99378 32848 ft 540 kts 63°
2026-05-08 12:41 44.29159 -68.89951 32845 ft 540 kts 63°
2026-05-08 12:42 44.32542 -68.80582 32838 ft 541 kts 63°
2026-05-08 12:42 44.35923 -68.71186 32833 ft 541 kts 64°
2026-05-08 12:43 44.39300 -68.61769 32828 ft 542 kts 64°
2026-05-08 12:43 44.42672 -68.52331 32822 ft 542 kts 64°
2026-05-08 12:44 44.46035 -68.42890 32818 ft 542 kts 64°
2026-05-08 12:44 44.49394 -68.33424 32817 ft 543 kts 64°
2026-05-08 12:45 44.52737 -68.23973 32811 ft 543 kts 64°
2026-05-08 12:45 44.56051 -68.14570 32803 ft 544 kts 65°
2026-05-08 12:46 44.59434 -68.04938 32799 ft 544 kts 65°
2026-05-08 12:46 44.62742 -67.95485 32800 ft 543 kts 65°
2026-05-08 12:47 44.66069 -67.85945 32793 ft 543 kts 65°
2026-05-08 12:47 44.69387 -67.76397 32790 ft 543 kts 65°
2026-05-08 12:48 44.72692 -67.66851 32789 ft 543 kts 66°
2026-05-08 12:48 44.75988 -67.57298 32790 ft 543 kts 66°
2026-05-08 12:49 44.79271 -67.47749 32781 ft 543 kts 66°
2026-05-08 12:49 44.82563 -67.38137 32787 ft 543 kts 66°
2026-05-08 12:50 44.85846 -67.28518 32794 ft 544 kts 67°
2026-05-08 12:50 44.89154 -67.18951 32790 ft 545 kts 64°
2026-05-08 12:51 44.95713 -67.05755 32797 ft 550 kts 52°
2026-05-08 12:52 45.00556 -66.97451 32787 ft 551 kts 52°
2026-05-08 12:52 45.07815 -66.84835 32780 ft 552 kts 53°
2026-05-08 12:53 45.12634 -66.76326 32769 ft 553 kts 53°
2026-05-08 12:53 45.17443 -66.67789 32759 ft 554 kts 53°
2026-05-08 12:54 45.22238 -66.59264 32748 ft 554 kts 53°
2026-05-08 12:54 45.27058 -66.50676 32746 ft 554 kts 53°
2026-05-08 12:55 45.31827 -66.42155 32736 ft 555 kts 54°
2026-05-08 12:55 45.36621 -66.33561 32735 ft 555 kts 54°
2026-05-08 12:56 45.41412 -66.24945 32733 ft 556 kts 54°
2026-05-08 12:56 45.46209 -66.16293 32733 ft 556 kts 54°
2026-05-08 12:57 45.51003 -66.07620 32733 ft 557 kts 54°
2026-05-08 12:57 45.55786 -65.98939 32730 ft 558 kts 55°
2026-05-08 12:58 45.60600 -65.90173 32741 ft 559 kts 55°
2026-05-08 12:58 45.65397 -65.81415 32730 ft 560 kts 55°
2026-05-08 12:59 45.70151 -65.72709 32719 ft 561 kts 55°
2026-05-08 12:59 45.74971 -65.63850 32722 ft 562 kts 56°
2026-05-08 13:00 45.79665 -65.55199 32718 ft 562 kts 56°
2026-05-08 13:00 45.84426 -65.46397 32715 ft 563 kts 56°
2026-05-08 13:01 45.89234 -65.37479 32711 ft 563 kts 56°
2026-05-08 13:01 45.93998 -65.28616 32712 ft 562 kts 56°
2026-05-08 13:02 45.98784 -65.19683 32712 ft 562 kts 56°
2026-05-08 13:02 46.03498 -65.10855 32711 ft 562 kts 57°
2026-05-08 13:03 46.08264 -65.01904 32698 ft 562 kts 57°
2026-05-08 13:03 46.13041 -64.92902 32699 ft 563 kts 57°
2026-05-08 13:04 46.17786 -64.83933 32699 ft 563 kts 57°
2026-05-08 13:04 46.22539 -64.74917 32699 ft 564 kts 57°
2026-05-08 13:05 46.27281 -64.65890 32719 ft 565 kts 57°
2026-05-08 13:05 46.32038 -64.56809 32701 ft 566 kts 58°
2026-05-08 13:06 46.36785 -64.47721 32712 ft 566 kts 58°
2026-05-08 13:06 46.41523 -64.38618 32702 ft 566 kts 58°
2026-05-08 13:07 46.46258 -64.29493 32705 ft 566 kts 58°
2026-05-08 13:07 46.50993 -64.20335 32704 ft 566 kts 58°
2026-05-08 13:08 46.55671 -64.11260 32703 ft 565 kts 58°
2026-05-08 13:08 46.60372 -64.02108 32703 ft 564 kts 58°
2026-05-08 13:09 46.65052 -63.92968 32703 ft 564 kts 58°
2026-05-08 13:09 46.69731 -63.83798 32703 ft 563 kts 58°
2026-05-08 13:10 46.74393 -63.74633 32706 ft 562 kts 59°
2026-05-08 13:10 46.79019 -63.65509 32704 ft 562 kts 59°
2026-05-08 13:11 46.83676 -63.56294 32705 ft 561 kts 59°
2026-05-08 13:11 46.88307 -63.47098 32712 ft 561 kts 59°
2026-05-08 13:12 46.92921 -63.37906 32719 ft 562 kts 59°
2026-05-08 13:12 46.97537 -63.28679 32723 ft 562 kts 59°
2026-05-08 13:13 47.02151 -63.19425 32719 ft 562 kts 60°
2026-05-08 13:13 47.06762 -63.10147 32723 ft 562 kts 60°
2026-05-08 13:14 47.11360 -63.00864 32718 ft 563 kts 60°
2026-05-08 13:14 47.15956 -62.91555 32721 ft 563 kts 60°
2026-05-08 13:15 47.20514 -62.82289 32721 ft 563 kts 61°
2026-05-08 13:15 47.25106 -62.72923 32724 ft 563 kts 61°
2026-05-08 13:16 47.29682 -62.63560 32731 ft 564 kts 61°
2026-05-08 13:16 47.34247 -62.54185 32730 ft 564 kts 62°
2026-05-08 13:17 47.38826 -62.44750 32744 ft 565 kts 62°
2026-05-08 13:17 47.43402 -62.35290 32738 ft 566 kts 62°
2026-05-08 13:18 47.47209 -62.27395 32725 ft 566 kts 62°
2026-05-08 13:18 47.51771 -62.17903 32716 ft 567 kts 62°
2026-05-08 13:19 47.56330 -62.08385 32706 ft 567 kts 62°
2026-05-08 13:19 47.60890 -61.98832 32704 ft 568 kts 63°
2026-05-08 13:20 47.65446 -61.89253 32703 ft 568 kts 63°
2026-05-08 13:20 47.69988 -61.79671 32704 ft 569 kts 63°
2026-05-08 13:21 47.74535 -61.70045 32711 ft 569 kts 63°
2026-05-08 13:21 47.79045 -61.60463 32710 ft 569 kts 63°
2026-05-08 13:22 47.83573 -61.50810 32709 ft 569 kts 63°
2026-05-08 13:22 47.88085 -61.41158 32714 ft 569 kts 63°
2026-05-08 13:23 47.92613 -61.31436 32733 ft 569 kts 63°
2026-05-08 13:23 47.97113 -61.21737 32734 ft 569 kts 63°
2026-05-08 13:24 48.01621 -61.11989 32731 ft 569 kts 63°
2026-05-08 13:24 48.06107 -61.02253 32730 ft 569 kts 64°
2026-05-08 13:25 48.10557 -60.92560 32721 ft 569 kts 64°
2026-05-08 13:25 48.15053 -60.82734 32721 ft 569 kts 64°
2026-05-08 13:26 48.19514 -60.72947 32716 ft 569 kts 64°
2026-05-08 13:26 48.23967 -60.63143 32728 ft 569 kts 64°
2026-05-08 13:27 48.28388 -60.53374 32728 ft 569 kts 64°
2026-05-08 13:27 48.32833 -60.43514 32722 ft 569 kts 64°
2026-05-08 13:28 48.37262 -60.33658 32723 ft 569 kts 64°
2026-05-08 13:28 48.41686 -60.23775 32724 ft 569 kts 64°
2026-05-08 13:29 48.46106 -60.13866 32723 ft 570 kts 64°
2026-05-08 13:29 48.50508 -60.03960 32721 ft 570 kts 64°
2026-05-08 13:30 48.54930 -59.93972 32724 ft 570 kts 64°
2026-05-08 13:30 48.59327 -59.84003 32717 ft 571 kts 65°
2026-05-08 13:31 48.63685 -59.74086 32712 ft 571 kts 65°
2026-05-08 13:31 48.68095 -59.64014 32715 ft 572 kts 65°
2026-05-08 13:32 48.72488 -59.53943 32716 ft 573 kts 65°
2026-05-08 13:32 48.76892 -59.43809 32725 ft 575 kts 65°
2026-05-08 13:33 48.81257 -59.33725 32721 ft 577 kts 66°
2026-05-08 13:33 48.85655 -59.23529 32719 ft 578 kts 66°
2026-05-08 13:34 48.90016 -59.13381 32719 ft 578 kts 66°
2026-05-08 13:34 48.94417 -59.03103 32715 ft 579 kts 66°
2026-05-08 13:35 48.97499 -58.95894 32662 ft 566 kts 66°
2026-05-08 13:35 48.99606 -58.90976 32685 ft 554 kts 67°
2026-05-08 13:35 49.01692 -58.86084 32729 ft 555 kts 67°
2026-05-08 13:36 49.05804 -58.76321 32731 ft 568 kts 67°
2026-05-08 13:36 49.09997 -58.66333 32724 ft 580 kts 67°
2026-05-08 13:37 49.14057 -58.56685 32715 ft 583 kts 66°
2026-05-08 13:37 49.18042 -58.47216 32686 ft 578 kts 66°
2026-05-08 13:38 49.21951 -58.37893 32708 ft 573 kts 67°
2026-05-08 13:38 49.25865 -58.28483 32699 ft 574 kts 67°
2026-05-08 13:39 49.29786 -58.19013 32696 ft 575 kts 66°
2026-05-08 13:39 49.33721 -58.09478 32680 ft 575 kts 66°
2026-05-08 13:40 49.35181 -58.05937 32677 ft 570 kts 66°
2026-05-08 13:40 49.37290 -58.00841 32616 ft 557 kts 66°
2026-05-08 13:40 49.39365 -57.95810 32713 ft 558 kts 66°
2026-05-08 13:41 49.43549 -57.85552 32705 ft 572 kts 66°
2026-05-08 13:41 49.47771 -57.75167 32684 ft 579 kts 66°
2026-05-08 13:42 49.52048 -57.64656 32673 ft 577 kts 66°
2026-05-08 13:42 49.56276 -57.54253 32667 ft 570 kts 66°
2026-05-08 13:43 49.60462 -57.43869 32664 ft 571 kts 66°
2026-05-08 13:43 49.64645 -57.33443 32664 ft 572 kts 66°
2026-05-08 13:44 49.68824 -57.22986 32660 ft 572 kts 66°
2026-05-08 13:44 49.72987 -57.12539 32656 ft 572 kts 66°
2026-05-08 13:45 49.77161 -57.02023 32657 ft 572 kts 66°
2026-05-08 13:45 49.81318 -56.91511 32644 ft 570 kts 66°
2026-05-08 13:46 49.85418 -56.81101 32668 ft 569 kts 66°
2026-05-08 13:46 49.89549 -56.70559 32653 ft 568 kts 66°
2026-05-08 13:47 49.93611 -56.60157 32651 ft 567 kts 66°
2026-05-08 13:47 49.97696 -56.49656 32661 ft 567 kts 66°
2026-05-08 13:48 50.01752 -56.39185 32657 ft 568 kts 66°
2026-05-08 13:48 50.05829 -56.28618 32656 ft 568 kts 66°
2026-05-08 13:49 50.09892 -56.18044 32660 ft 569 kts 66°
2026-05-08 13:49 50.13946 -56.07450 32667 ft 570 kts 66°
2026-05-08 13:50 50.18008 -55.96796 32660 ft 572 kts 66°
2026-05-08 13:50 50.22061 -55.86121 32665 ft 573 kts 66°
2026-05-08 13:51 50.26115 -55.75398 32664 ft 574 kts 66°
2026-05-08 13:51 50.30164 -55.64643 32661 ft 574 kts 66°
2026-05-08 13:52 50.34215 -55.53841 32663 ft 574 kts 66°
2026-05-08 13:52 50.38217 -55.43124 32676 ft 574 kts 66°
2026-05-08 13:53 50.42234 -55.32321 32671 ft 573 kts 66°
2026-05-08 13:53 50.46243 -55.21493 32667 ft 573 kts 66°
2026-05-08 13:54 50.50239 -55.10658 32669 ft 572 kts 66°
2026-05-08 13:54 50.54212 -54.99836 32673 ft 572 kts 66°
2026-05-08 13:55 50.58166 -54.89021 32674 ft 571 kts 66°
2026-05-08 13:56 50.64085 -54.72748 32685 ft 570 kts 66°
2026-05-08 13:56 50.68020 -54.61866 32671 ft 572 kts 66°
2026-05-08 13:57 50.71946 -54.50967 32670 ft 571 kts 66°
2026-05-08 13:57 50.75854 -54.40078 32671 ft 568 kts 66°
2026-05-08 13:58 50.79711 -54.29284 32675 ft 566 kts 66°
2026-05-08 13:58 50.83570 -54.18432 32687 ft 565 kts 66°
2026-05-08 13:59 50.87414 -54.07574 32689 ft 565 kts 66°
2026-05-08 13:59 50.91246 -53.96708 32674 ft 564 kts 66°
2026-05-08 14:00 50.95057 -53.85856 32682 ft 562 kts 66°
2026-05-08 14:00 50.98851 -53.75005 32676 ft 561 kts 66°
2026-05-08 14:01 51.02620 -53.64178 32693 ft 560 kts 67°
2026-05-08 14:01 51.06367 -53.53364 32696 ft 559 kts 67°
2026-05-08 14:02 51.10118 -53.42494 32688 ft 559 kts 67°
2026-05-08 14:02 51.13827 -53.31702 32682 ft 559 kts 67°
2026-05-08 14:03 51.17461 -53.20797 32681 ft 555 kts 71°
2026-05-08 14:03 51.20579 -53.09601 32698 ft 552 kts 73°
2026-05-08 14:04 51.23601 -52.98337 32695 ft 552 kts 73°
2026-05-08 14:04 51.26639 -52.87059 32685 ft 552 kts 73°
2026-05-08 14:05 51.29683 -52.75824 32698 ft 552 kts 72°
2026-05-08 14:05 51.32728 -52.64571 32703 ft 552 kts 72°
2026-05-08 14:06 51.35253 -52.55191 32719 ft 552 kts 73°
2026-05-08 14:06 51.38276 -52.43902 32719 ft 552 kts 73°
2026-05-08 14:07 51.41283 -52.32611 32712 ft 552 kts 73°
2026-05-08 14:07 51.44290 -52.21266 32713 ft 552 kts 73°
2026-05-08 14:08 51.47278 -52.09934 32720 ft 552 kts 73°
2026-05-08 14:08 51.50265 -51.98551 32723 ft 553 kts 73°
2026-05-08 14:09 51.53230 -51.87199 32730 ft 553 kts 73°
2026-05-08 14:09 51.56194 -51.75791 32733 ft 553 kts 73°
2026-05-08 14:10 51.59120 -51.64472 32733 ft 553 kts 73°
2026-05-08 14:10 51.62071 -51.52999 32736 ft 553 kts 73°
2026-05-08 14:11 51.65021 -51.41472 32736 ft 553 kts 73°
2026-05-08 14:11 51.67923 -51.30076 32742 ft 553 kts 73°
2026-05-08 14:12 51.70833 -51.18585 32744 ft 553 kts 73°
2026-05-08 14:12 51.73724 -51.07115 32749 ft 553 kts 73°
2026-05-08 14:13 51.76606 -50.95616 32754 ft 553 kts 73°
2026-05-08 14:13 51.79480 -50.84093 32768 ft 552 kts 72°
2026-05-08 14:14 51.82336 -50.72585 32767 ft 552 kts 72°
2026-05-08 14:14 51.85183 -50.61047 32773 ft 552 kts 72°
2026-05-08 14:15 51.88013 -50.49523 32779 ft 552 kts 72°
2026-05-08 14:15 51.90837 -50.37959 32785 ft 551 kts 72°
2026-05-08 14:16 51.93644 -50.26406 32792 ft 551 kts 72°
2026-05-08 14:16 51.96441 -50.14829 32791 ft 551 kts 73°
2026-05-08 14:17 51.99212 -50.03305 32797 ft 551 kts 72°
2026-05-08 14:17 52.02052 -49.91665 32803 ft 552 kts 71°
2026-05-08 14:18 52.04946 -49.80229 32806 ft 553 kts 71°
2026-05-08 14:18 52.07883 -49.68614 32818 ft 553 kts 71°
2026-05-08 14:19 52.10781 -49.57014 32834 ft 553 kts 71°
2026-05-08 14:19 52.13647 -49.45429 32834 ft 553 kts 71°
2026-05-08 14:20 52.16520 -49.33746 32834 ft 553 kts 71°
2026-05-08 14:20 52.19334 -49.22252 32833 ft 552 kts 71°
2026-05-08 14:21 52.22170 -49.10607 32839 ft 551 kts 71°
2026-05-08 14:21 52.24989 -48.98973 32843 ft 550 kts 71°
2026-05-08 14:22 52.27787 -48.87366 32854 ft 549 kts 71°
2026-05-08 14:22 52.30572 -48.75745 32858 ft 548 kts 71°
2026-05-08 14:23 52.33337 -48.64150 32863 ft 547 kts 71°
2026-05-08 14:23 52.36070 -48.52622 32864 ft 547 kts 71°
2026-05-08 14:24 52.38733 -48.41334 32872 ft 547 kts 71°
2026-05-08 14:24 52.41495 -48.29563 32882 ft 547 kts 71°
2026-05-08 14:25 52.44190 -48.18017 32888 ft 547 kts 71°
2026-05-08 14:25 52.46903 -48.06326 32893 ft 547 kts 71°
2026-05-08 14:26 52.49596 -47.94658 32899 ft 547 kts 71°
2026-05-08 14:26 52.52280 -47.82970 32908 ft 547 kts 71°
2026-05-08 14:27 52.54949 -47.71280 32909 ft 546 kts 71°
2026-05-08 14:27 52.57601 -47.59598 32923 ft 545 kts 71°
2026-05-08 14:28 52.60235 -47.47931 32919 ft 544 kts 71°
2026-05-08 14:28 52.62858 -47.36252 32935 ft 543 kts 71°
2026-05-08 14:29 52.65459 -47.24601 32943 ft 542 kts 71°
2026-05-08 14:29 52.68033 -47.13011 32950 ft 541 kts 71°
2026-05-08 14:30 52.70612 -47.01329 32971 ft 540 kts 71°
2026-05-08 14:30 52.73152 -46.89759 32959 ft 540 kts 71°
2026-05-08 14:31 52.75722 -46.77990 32983 ft 539 kts 71°
2026-05-08 14:31 52.78252 -46.66333 32991 ft 539 kts 71°
2026-05-08 14:32 52.82027 -46.48820 33002 ft 538 kts 71°
2026-05-08 14:32 52.84526 -46.37144 33004 ft 538 kts 71°
2026-05-08 14:33 52.86991 -46.25558 33018 ft 537 kts 71°
2026-05-08 14:33 52.89461 -46.13886 33026 ft 536 kts 71°
2026-05-08 14:34 52.91908 -46.02252 33035 ft 535 kts 71°
2026-05-08 14:34 52.94352 -45.90567 33042 ft 534 kts 71°
2026-05-08 14:35 52.96769 -45.78943 33049 ft 533 kts 71°
2026-05-08 14:35 52.99175 -45.67304 33060 ft 532 kts 71°
2026-05-08 14:36 53.01563 -45.55682 33068 ft 532 kts 71°
2026-05-08 14:36 53.03940 -45.44049 33074 ft 531 kts 71°
2026-05-08 14:37 53.06304 -45.32409 33081 ft 531 kts 71°
2026-05-08 14:37 53.08658 -45.20752 33089 ft 531 kts 71°
2026-05-08 14:38 53.10992 -45.09127 33097 ft 531 kts 71°
2026-05-08 14:38 53.13322 -44.97449 33106 ft 530 kts 71°
2026-05-08 14:39 53.15632 -44.85802 33112 ft 529 kts 71°
2026-05-08 14:39 53.17924 -44.74176 33120 ft 528 kts 71°
2026-05-08 14:40 53.20188 -44.62621 33214 ft 525 kts 71°
2026-05-08 14:40 53.21314 -44.56849 33407 ft 523 kts 71°
2026-05-08 14:40 53.22437 -44.51075 33594 ft 523 kts 70°
2026-05-08 14:41 53.23557 -44.45296 33784 ft 523 kts 70°
2026-05-08 14:41 53.24677 -44.39507 33976 ft 523 kts 70°
2026-05-08 14:41 53.25792 -44.33724 34159 ft 523 kts 70°
2026-05-08 14:41 53.26899 -44.27964 34323 ft 523 kts 70°
2026-05-08 14:42 53.28006 -44.22182 34495 ft 522 kts 70°
2026-05-08 14:42 53.29096 -44.16474 34660 ft 521 kts 70°
2026-05-08 14:42 53.30211 -44.10622 34825 ft 520 kts 70°
2026-05-08 14:42 53.31264 -44.05073 34971 ft 519 kts 70°
2026-05-08 14:43 53.32721 -43.97354 35070 ft 504 kts 70°
2026-05-08 14:43 53.33712 -43.92082 35097 ft 493 kts 70°
2026-05-08 14:43 53.34646 -43.87105 35112 ft 485 kts 69°
2026-05-08 14:44 53.36524 -43.77073 35158 ft 468 kts 69°
2026-05-08 14:44 53.38341 -43.67319 35157 ft 453 kts 69°
2026-05-08 14:45 53.40133 -43.57651 35164 ft 439 kts 69°
2026-05-08 14:45 53.41812 -43.48546 35161 ft 427 kts 69°
2026-05-08 14:46 53.42986 -43.42157 34972 ft 424 kts 69°
2026-05-08 14:46 53.43850 -43.37449 34757 ft 424 kts 69°
2026-05-08 14:46 53.44713 -43.32735 34569 ft 423 kts 69°
2026-05-08 14:47 53.46454 -43.23180 34813 ft 429 kts 69°
2026-05-08 14:47 53.47326 -43.18373 34989 ft 431 kts 69°
2026-05-08 14:47 53.48197 -43.13552 35135 ft 434 kts 69°
2026-05-08 14:48 53.49967 -43.03737 35228 ft 446 kts 69°
2026-05-08 14:48 53.51775 -42.93649 35236 ft 461 kts 69°
2026-05-08 14:49 53.53640 -42.83177 35240 ft 475 kts 70°
2026-05-08 14:49 53.55553 -42.72363 35248 ft 489 kts 70°
2026-05-08 14:50 53.57504 -42.61262 35253 ft 501 kts 70°
2026-05-08 14:50 53.59491 -42.49884 35244 ft 511 kts 70°
2026-05-08 14:51 53.61156 -42.40293 35250 ft 513 kts 70°
2026-05-08 14:51 53.63145 -42.28751 35238 ft 508 kts 70°
2026-05-08 14:52 53.66043 -42.11818 35257 ft 503 kts 70°
2026-05-08 14:53 53.67971 -42.00485 35265 ft 503 kts 70°
2026-05-08 14:53 53.69891 -41.89116 35273 ft 503 kts 70°
2026-05-08 14:54 53.71800 -41.77734 35273 ft 504 kts 70°
2026-05-08 14:54 53.73679 -41.66458 35278 ft 503 kts 70°
2026-05-08 14:55 53.75584 -41.54946 35285 ft 503 kts 70°
2026-05-08 14:55 53.77442 -41.43647 35288 ft 502 kts 70°
2026-05-08 14:56 53.79310 -41.32210 35292 ft 500 kts 70°
2026-05-08 14:56 53.81141 -41.20929 35293 ft 499 kts 70°
2026-05-08 14:57 53.82964 -41.09615 35301 ft 497 kts 70°
2026-05-08 14:57 53.84770 -40.98335 35310 ft 496 kts 70°
2026-05-08 14:58 53.86562 -40.87070 35310 ft 495 kts 70°
2026-05-08 14:58 53.88343 -40.75799 35313 ft 495 kts 70°
2026-05-08 14:59 53.90111 -40.64526 35322 ft 494 kts 70°
2026-05-08 14:59 53.92733 -40.47673 35330 ft 495 kts 70°
2026-05-08 15:00 53.94477 -40.36362 35337 ft 495 kts 70°
2026-05-08 15:00 53.96209 -40.25053 35338 ft 495 kts 70°
2026-05-08 15:01 53.97917 -40.13814 35339 ft 495 kts 70°
2026-05-08 15:01 53.99644 -40.02390 35343 ft 495 kts 70°
2026-05-08 15:02 54.01321 -39.91023 35353 ft 496 kts 70°
2026-05-08 15:02 54.02934 -39.79708 35354 ft 496 kts 71°
2026-05-08 15:03 54.04547 -39.68294 35359 ft 496 kts 70°
2026-05-08 15:03 54.06157 -39.56856 35365 ft 496 kts 71°
2026-05-08 15:04 54.07758 -39.45427 35367 ft 497 kts 71°
2026-05-08 15:04 54.09356 -39.33936 35371 ft 497 kts 71°
2026-05-08 15:05 54.10926 -39.22551 35380 ft 498 kts 71°
2026-05-08 15:05 54.12497 -39.11078 35389 ft 498 kts 71°
2026-05-08 15:06 54.14062 -38.99559 35385 ft 498 kts 71°
2026-05-08 15:06 54.15615 -38.88034 35388 ft 498 kts 71°
2026-05-08 15:07 54.17156 -38.76508 35386 ft 498 kts 71°
2026-05-08 15:07 54.18687 -38.64974 35395 ft 498 kts 71°
2026-05-08 15:08 54.19947 -38.55405 35401 ft 497 kts 71°
2026-05-08 15:08 54.21701 -38.41983 35408 ft 497 kts 71°
2026-05-08 15:09 54.23194 -38.30449 35408 ft 496 kts 71°
2026-05-08 15:09 54.24676 -38.18919 35419 ft 496 kts 71°
2026-05-08 15:10 54.26146 -38.07379 35418 ft 495 kts 71°
2026-05-08 15:10 54.27603 -37.95849 35423 ft 495 kts 71°
2026-05-08 15:11 54.29047 -37.84335 35428 ft 494 kts 71°
2026-05-08 15:11 54.30472 -37.72870 35433 ft 494 kts 71°
2026-05-08 15:12 54.31890 -37.61369 35432 ft 493 kts 71°
2026-05-08 15:12 54.33295 -37.49883 35439 ft 493 kts 71°
2026-05-08 15:13 54.34685 -37.38414 35444 ft 492 kts 71°
2026-05-08 15:13 54.36067 -37.26912 35453 ft 491 kts 71°
2026-05-08 15:14 54.37435 -37.15433 35448 ft 491 kts 71°
2026-05-08 15:14 54.38790 -37.03967 35456 ft 490 kts 71°
2026-05-08 15:15 54.40136 -36.92470 35456 ft 490 kts 71°
2026-05-08 15:15 54.41467 -36.81006 35460 ft 490 kts 71°
2026-05-08 15:16 54.42778 -36.69615 35466 ft 490 kts 71°
2026-05-08 15:16 54.44086 -36.58145 35463 ft 489 kts 71°
2026-05-08 15:17 54.45385 -36.46648 35470 ft 489 kts 71°
2026-05-08 15:17 54.46669 -36.35189 35472 ft 489 kts 71°
2026-05-08 15:18 54.47943 -36.23702 35470 ft 489 kts 71°
2026-05-08 15:18 54.49207 -36.12214 35474 ft 488 kts 71°
2026-05-08 15:19 54.50456 -36.00744 35476 ft 488 kts 71°
2026-05-08 15:19 54.51696 -35.89255 35479 ft 487 kts 71°
2026-05-08 15:20 54.52918 -35.77819 35484 ft 486 kts 71°
2026-05-08 15:20 54.54129 -35.66384 35484 ft 485 kts 71°
2026-05-08 15:21 54.55327 -35.54963 35486 ft 484 kts 71°
2026-05-08 15:21 54.56513 -35.43556 35487 ft 483 kts 71°
2026-05-08 15:22 54.57678 -35.32234 35477 ft 482 kts 71°
2026-05-08 15:22 54.58839 -35.20851 35488 ft 481 kts 71°
2026-05-08 15:23 54.59983 -35.09514 35493 ft 481 kts 71°
2026-05-08 15:23 54.61122 -34.98128 35496 ft 481 kts 71°
2026-05-08 15:24 54.62249 -34.86741 35495 ft 481 kts 72°
2026-05-08 15:24 54.63367 -34.75325 35502 ft 482 kts 72°
2026-05-08 15:25 54.64472 -34.63935 35506 ft 482 kts 72°
2026-05-08 15:25 54.65571 -34.52476 35508 ft 483 kts 72°
2026-05-08 15:26 54.66659 -34.41018 35512 ft 483 kts 72°
2026-05-08 15:26 54.67737 -34.29548 35507 ft 484 kts 72°
2026-05-08 15:27 54.68805 -34.18058 35515 ft 484 kts 72°
2026-05-08 15:27 54.69861 -34.06589 35515 ft 484 kts 72°
2026-05-08 15:28 54.70898 -33.95195 35519 ft 485 kts 73°
2026-05-08 15:28 54.71941 -33.83607 35518 ft 485 kts 73°
2026-05-08 15:29 54.72967 -33.72071 35515 ft 485 kts 73°
2026-05-08 15:29 54.73985 -33.60507 35523 ft 486 kts 73°
2026-05-08 15:30 54.74993 -33.48926 35525 ft 486 kts 73°
2026-05-08 15:30 54.75989 -33.37350 35527 ft 487 kts 73°
2026-05-08 15:31 54.76974 -33.25768 35526 ft 487 kts 74°
2026-05-08 15:31 54.77950 -33.14144 35526 ft 487 kts 74°
2026-05-08 15:32 54.78915 -33.02524 35532 ft 487 kts 74°
2026-05-08 15:32 54.79867 -32.90920 35533 ft 487 kts 74°
2026-05-08 15:33 54.80807 -32.79315 35532 ft 486 kts 75°
2026-05-08 15:33 54.81739 -32.67672 35543 ft 486 kts 75°
2026-05-08 15:34 54.82647 -32.56182 35529 ft 485 kts 75°
2026-05-08 15:34 54.83553 -32.44589 35533 ft 484 kts 75°
2026-05-08 15:35 54.84447 -32.32993 35535 ft 484 kts 75°
2026-05-08 15:35 54.85327 -32.21429 35534 ft 483 kts 75°
2026-05-08 15:36 54.86051 -32.11808 35532 ft 483 kts 75°
2026-05-08 15:36 54.86909 -32.00263 35530 ft 482 kts 75°
2026-05-08 15:37 54.87753 -31.88751 35530 ft 482 kts 75°
2026-05-08 15:37 54.88593 -31.77140 35526 ft 482 kts 75°
2026-05-08 15:38 54.89417 -31.65601 35527 ft 481 kts 75°
2026-05-08 15:38 54.90231 -31.54047 35525 ft 481 kts 76°
2026-05-08 15:39 54.91031 -31.42527 35528 ft 481 kts 76°
2026-05-08 15:39 54.91819 -31.31004 35526 ft 480 kts 76°
2026-05-08 15:40 54.92599 -31.19445 35529 ft 480 kts 76°
2026-05-08 15:40 54.93361 -31.07992 35527 ft 480 kts 76°
2026-05-08 15:41 54.94116 -30.96475 35532 ft 480 kts 76°
2026-05-08 15:41 54.94862 -30.84925 35517 ft 480 kts 77°
2026-05-08 15:42 54.95593 -30.73426 35526 ft 479 kts 77°
2026-05-08 15:42 54.96318 -30.61857 35523 ft 479 kts 77°
2026-05-08 15:43 54.97025 -30.50386 35526 ft 479 kts 77°
2026-05-08 15:43 54.97727 -30.38823 35522 ft 479 kts 77°
2026-05-08 15:44 54.98417 -30.27266 35524 ft 479 kts 77°
2026-05-08 15:44 54.99094 -30.15737 35520 ft 479 kts 77°
2026-05-08 15:45 54.99758 -30.04278 35527 ft 478 kts 77°
2026-05-08 15:45 55.00359 -29.92721 35521 ft 479 kts 78°
2026-05-08 15:46 55.00808 -29.81119 35521 ft 479 kts 79°
2026-05-08 15:46 55.01228 -29.69548 35520 ft 479 kts 79°
2026-05-08 15:47 55.01656 -29.57956 35397 ft 479 kts 79°
2026-05-08 15:47 55.01870 -29.52191 35273 ft 478 kts 79°
2026-05-08 15:47 55.02081 -29.46432 35156 ft 476 kts 79°
2026-05-08 15:48 55.02497 -29.34940 34921 ft 474 kts 79°
2026-05-08 15:48 55.02701 -29.29209 34812 ft 473 kts 79°
2026-05-08 15:48 55.02902 -29.23473 34698 ft 472 kts 79°
2026-05-08 15:49 55.03100 -29.17772 34579 ft 471 kts 79°
2026-05-08 15:49 55.03293 -29.12106 34466 ft 470 kts 79°
2026-05-08 15:49 55.03485 -29.06403 34334 ft 470 kts 79°
2026-05-08 15:49 55.03673 -29.00760 34198 ft 470 kts 79°
2026-05-08 15:50 55.03857 -28.95120 34077 ft 470 kts 79°
2026-05-08 15:50 55.04045 -28.89318 33944 ft 470 kts 79°
2026-05-08 15:50 55.04226 -28.83614 33808 ft 471 kts 79°
2026-05-08 15:50 55.04404 -28.77918 33681 ft 471 kts 79°
2026-05-08 15:51 55.04581 -28.72195 33591 ft 473 kts 79°
2026-05-08 15:51 55.04927 -28.60732 33506 ft 474 kts 79°
2026-05-08 15:52 55.05258 -28.49311 33510 ft 473 kts 79°
2026-05-08 15:52 55.05580 -28.37848 33500 ft 473 kts 79°
2026-05-08 15:53 55.05892 -28.26382 33499 ft 472 kts 79°
2026-05-08 15:53 55.06194 -28.14934 33495 ft 472 kts 79°
2026-05-08 15:54 55.06484 -28.03477 33499 ft 472 kts 79°
2026-05-08 15:54 55.06764 -27.92010 33502 ft 472 kts 79°
2026-05-08 15:55 55.07032 -27.80598 33496 ft 472 kts 79°
2026-05-08 15:55 55.07415 -27.63419 33491 ft 471 kts 79°
2026-05-08 15:56 55.07654 -27.52100 33488 ft 471 kts 79°
2026-05-08 15:56 55.07885 -27.40639 33487 ft 470 kts 79°
2026-05-08 15:57 55.08105 -27.29235 33487 ft 470 kts 79°
2026-05-08 15:57 55.08314 -27.17832 33483 ft 470 kts 79°
2026-05-08 15:58 55.08509 -27.06453 33479 ft 470 kts 79°
2026-05-08 15:58 55.08694 -26.95071 33480 ft 469 kts 79°
2026-05-08 15:59 55.08871 -26.83650 33474 ft 469 kts 79°
2026-05-08 15:59 55.09038 -26.72261 33479 ft 470 kts 79°
2026-05-08 16:00 55.09194 -26.60858 33467 ft 470 kts 79°
2026-05-08 16:00 55.09339 -26.49430 33469 ft 470 kts 79°
2026-05-08 16:01 55.09473 -26.38104 33465 ft 470 kts 79°
2026-05-08 16:01 55.09597 -26.26679 33467 ft 471 kts 80°
2026-05-08 16:02 55.09710 -26.15259 33463 ft 471 kts 80°
2026-05-08 16:02 55.09813 -26.03802 33464 ft 472 kts 80°
2026-05-08 16:03 55.09905 -25.92359 33461 ft 472 kts 80°
2026-05-08 16:03 55.09986 -25.80872 33451 ft 473 kts 81°
2026-05-08 16:04 55.10057 -25.69386 33454 ft 473 kts 81°
2026-05-08 16:04 55.10117 -25.57889 33454 ft 472 kts 81°
2026-05-08 16:05 55.10166 -25.46409 33458 ft 473 kts 81°
2026-05-08 16:05 55.10205 -25.34898 33460 ft 475 kts 81°
2026-05-08 16:06 55.10233 -25.23349 33442 ft 476 kts 82°
2026-05-08 16:06 55.10249 -25.11770 33447 ft 477 kts 82°
2026-05-08 16:07 55.10254 -25.00210 33440 ft 477 kts 82°
2026-05-08 16:07 55.10249 -24.88656 33443 ft 477 kts 82°
2026-05-08 16:08 55.10232 -24.77070 33436 ft 477 kts 82°
2026-05-08 16:08 55.10205 -24.65509 33439 ft 477 kts 82°
2026-05-08 16:09 55.10174 -24.55765 33436 ft 477 kts 83°
2026-05-08 16:09 55.10118 -24.42311 33437 ft 477 kts 83°
2026-05-08 16:10 55.10057 -24.30732 33430 ft 477 kts 83°
2026-05-08 16:10 55.09986 -24.19122 33435 ft 477 kts 83°
2026-05-08 16:11 55.09904 -24.07525 33426 ft 477 kts 83°
2026-05-08 16:11 55.09811 -23.96005 33431 ft 477 kts 83°
2026-05-08 16:12 55.09706 -23.84349 33426 ft 477 kts 83°
2026-05-08 16:12 55.09591 -23.72761 33413 ft 477 kts 83°
2026-05-08 16:13 55.09464 -23.61189 33418 ft 477 kts 83°
2026-05-08 16:13 55.09328 -23.49674 33420 ft 477 kts 84°
2026-05-08 16:14 55.09179 -23.38024 33417 ft 477 kts 84°
2026-05-08 16:14 55.09021 -23.26497 33416 ft 477 kts 84°
2026-05-08 16:15 55.08850 -23.14891 33414 ft 477 kts 84°
2026-05-08 16:15 55.08669 -23.03331 33417 ft 477 kts 84°
2026-05-08 16:16 55.08477 -22.91732 33405 ft 478 kts 84°
2026-05-08 16:16 55.08274 -22.80170 33398 ft 478 kts 84°
2026-05-08 16:17 55.08096 -22.70491 33400 ft 478 kts 85°
2026-05-08 16:17 55.07834 -22.56936 33399 ft 479 kts 85°
2026-05-08 16:18 55.07599 -22.45410 33399 ft 480 kts 85°
2026-05-08 16:18 55.07349 -22.33726 33393 ft 480 kts 85°
2026-05-08 16:19 55.07089 -22.22082 33390 ft 481 kts 86°
2026-05-08 16:19 55.06817 -22.10396 33391 ft 481 kts 86°
2026-05-08 16:20 55.06535 -21.98742 33385 ft 482 kts 86°
2026-05-08 16:20 55.06240 -21.87018 33387 ft 483 kts 87°
2026-05-08 16:21 55.05934 -21.75341 33377 ft 484 kts 87°
2026-05-08 16:21 55.05614 -21.63543 33378 ft 484 kts 88°
2026-05-08 16:22 55.05341 -21.53776 33374 ft 485 kts 88°
2026-05-08 16:22 55.04946 -21.40111 33377 ft 486 kts 88°
2026-05-08 16:23 55.04653 -21.30334 33374 ft 487 kts 88°
2026-05-08 16:23 55.04289 -21.18523 33372 ft 488 kts 89°
2026-05-08 16:24 55.03912 -21.06699 33359 ft 489 kts 89°
2026-05-08 16:24 55.03524 -20.94856 33371 ft 490 kts 89°
2026-05-08 16:25 55.03124 -20.82985 33359 ft 491 kts 90°
2026-05-08 16:25 55.02711 -20.71090 33365 ft 492 kts 90°
2026-05-08 16:26 55.02286 -20.59202 33357 ft 493 kts 90°
2026-05-08 16:26 55.01848 -20.47251 33366 ft 494 kts 91°
2026-05-08 16:27 55.01397 -20.35281 33355 ft 495 kts 91°
2026-05-08 16:27 55.00934 -20.23294 33351 ft 496 kts 91°
2026-05-08 16:28 55.00460 -20.11304 33347 ft 497 kts 91°
2026-05-08 16:28 54.99760 -19.99379 33352 ft 499 kts 98°
2026-05-08 16:29 54.97941 -19.87665 33348 ft 502 kts 105°
2026-05-08 16:29 54.95827 -19.76092 33351 ft 503 kts 106°
2026-05-08 16:30 54.93713 -19.64456 33338 ft 504 kts 106°
2026-05-08 16:30 54.91621 -19.52822 33343 ft 505 kts 106°
2026-05-08 16:31 54.89524 -19.41157 33334 ft 506 kts 106°
2026-05-08 16:31 54.87415 -19.29504 33335 ft 506 kts 107°
2026-05-08 16:32 54.85295 -19.17869 33336 ft 506 kts 107°
2026-05-08 16:32 54.83155 -19.06207 33319 ft 506 kts 107°
2026-05-08 16:33 54.81024 -18.94670 33314 ft 506 kts 107°
2026-05-08 16:33 54.78848 -18.82962 33324 ft 506 kts 108°
2026-05-08 16:34 54.76694 -18.71439 33321 ft 507 kts 108°
2026-05-08 16:34 54.74509 -18.59818 33316 ft 507 kts 108°
2026-05-08 16:35 54.72318 -18.48244 33313 ft 507 kts 108°
2026-05-08 16:35 54.70110 -18.36649 33317 ft 507 kts 109°
2026-05-08 16:36 54.67892 -18.25072 33314 ft 508 kts 109°
2026-05-08 16:36 54.65660 -18.13494 33311 ft 509 kts 109°
2026-05-08 16:37 54.63408 -18.01882 33306 ft 509 kts 109°
2026-05-08 16:37 54.61156 -17.90334 33302 ft 508 kts 110°
2026-05-08 16:38 54.58892 -17.78799 33298 ft 507 kts 110°
2026-05-08 16:38 54.56618 -17.67281 33296 ft 507 kts 110°
2026-05-08 16:39 54.54337 -17.55792 33292 ft 507 kts 110°
2026-05-08 16:39 54.52040 -17.44294 33295 ft 507 kts 111°
2026-05-08 16:40 54.49752 -17.32907 33289 ft 507 kts 111°
2026-05-08 16:40 54.47439 -17.21463 33287 ft 508 kts 111°
2026-05-08 16:41 54.45103 -17.09974 33283 ft 508 kts 111°
2026-05-08 16:42 54.41594 -16.92837 33276 ft 509 kts 112°
2026-05-08 16:42 54.39222 -16.81334 33282 ft 509 kts 112°
2026-05-08 16:43 54.36849 -16.69893 33272 ft 509 kts 112°
2026-05-08 16:43 54.34462 -16.58450 33277 ft 509 kts 112°
2026-05-08 16:44 54.32196 -16.47644 33266 ft 509 kts 113°
2026-05-08 16:44 54.29794 -16.36255 33256 ft 509 kts 113°
2026-05-08 16:45 54.27382 -16.24884 33274 ft 508 kts 113°
2026-05-08 16:45 54.24961 -16.13535 33270 ft 508 kts 114°
2026-05-08 16:46 54.22524 -16.02173 33265 ft 508 kts 114°
2026-05-08 16:46 54.20074 -15.90814 33258 ft 508 kts 114°
2026-05-08 16:47 54.17621 -15.79503 33255 ft 508 kts 114°
2026-05-08 16:47 54.15161 -15.68220 33252 ft 507 kts 114°
2026-05-08 16:48 54.12689 -15.56943 33249 ft 507 kts 115°
2026-05-08 16:48 54.10205 -15.45679 33249 ft 507 kts 115°
2026-05-08 16:49 54.07733 -15.34523 33243 ft 507 kts 115°
2026-05-08 16:49 54.05218 -15.23232 33246 ft 507 kts 115°
2026-05-08 16:50 54.02725 -15.12095 33236 ft 508 kts 115°
2026-05-08 16:50 54.00653 -15.00551 33241 ft 514 kts 104°
2026-05-08 16:51 53.99898 -14.88438 33233 ft 520 kts 93°
2026-05-08 16:51 53.99977 -14.76122 33238 ft 521 kts 92°
2026-05-08 16:52 54.00073 -14.63802 33230 ft 522 kts 92°
2026-05-08 16:52 54.00101 -14.51506 33233 ft 522 kts 93°
2026-05-08 16:53 54.00086 -14.32908 33222 ft 522 kts 93°
2026-05-08 16:53 54.00064 -14.20685 33227 ft 521 kts 93°
2026-05-08 16:54 54.00032 -14.08338 33223 ft 521 kts 94°
2026-05-08 16:54 53.99672 -13.96123 33220 ft 516 kts 102°
2026-05-08 16:55 53.98374 -13.84180 33216 ft 513 kts 105°
2026-05-08 16:55 53.96996 -13.72233 33217 ft 513 kts 105°
2026-05-08 16:56 53.95648 -13.60340 33210 ft 513 kts 105°
2026-05-08 16:56 53.94315 -13.48432 33209 ft 512 kts 105°
2026-05-08 16:57 53.92991 -13.36651 33208 ft 512 kts 105°
2026-05-08 16:57 53.91642 -13.24779 33201 ft 511 kts 105°
2026-05-08 16:58 53.90287 -13.12967 33195 ft 511 kts 105°
2026-05-08 16:58 53.88912 -13.01106 33212 ft 510 kts 105°
2026-05-08 16:59 53.87541 -12.89380 33194 ft 509 kts 105°
2026-05-08 16:59 53.86148 -12.77586 33186 ft 509 kts 105°
2026-05-08 17:00 53.84750 -12.65844 33197 ft 508 kts 106°
2026-05-08 17:00 53.83347 -12.54172 33201 ft 507 kts 106°
2026-05-08 17:01 53.81918 -12.42377 33190 ft 507 kts 106°
2026-05-08 17:01 53.80503 -12.30807 33186 ft 506 kts 106°
2026-05-08 17:02 53.79065 -12.19140 33185 ft 505 kts 106°
2026-05-08 17:02 53.77619 -12.07517 33182 ft 505 kts 106°
2026-05-08 17:03 53.76164 -11.95909 33179 ft 504 kts 106°
2026-05-08 17:03 53.74703 -11.84360 33178 ft 503 kts 106°
2026-05-08 17:04 53.73229 -11.72796 33175 ft 502 kts 106°
2026-05-08 17:04 53.71749 -11.61280 33177 ft 501 kts 107°
2026-05-08 17:05 53.70267 -11.49848 33171 ft 500 kts 107°
2026-05-08 17:05 53.68772 -11.38416 33175 ft 500 kts 107°
2026-05-08 17:06 53.67264 -11.26966 33167 ft 500 kts 107°
2026-05-08 17:06 53.65753 -11.15585 33154 ft 499 kts 107°
2026-05-08 17:07 53.64222 -11.04141 33159 ft 498 kts 107°
2026-05-08 17:07 53.62943 -10.94645 33157 ft 498 kts 107°
2026-05-08 17:08 53.61393 -10.83226 33156 ft 498 kts 107°
2026-05-08 17:08 53.59847 -10.71927 33152 ft 498 kts 107°
2026-05-08 17:09 53.58282 -10.60569 33155 ft 498 kts 107°
2026-05-08 17:09 53.56704 -10.49206 33155 ft 498 kts 107°
2026-05-08 17:10 53.55118 -10.37873 33145 ft 498 kts 107°
2026-05-08 17:10 53.53520 -10.26531 33140 ft 499 kts 107°
2026-05-08 17:11 53.51910 -10.15200 33136 ft 499 kts 107°
2026-05-08 17:11 53.50285 -10.03842 33129 ft 499 kts 107°
2026-05-08 17:12 53.48653 -9.92520 33128 ft 499 kts 107°
2026-05-08 17:12 53.47011 -9.81201 33127 ft 499 kts 107°
2026-05-08 17:13 53.45367 -9.69961 33128 ft 499 kts 107°
2026-05-08 17:13 53.43701 -9.58650 33099 ft 499 kts 107°
2026-05-08 17:14 53.42014 -9.47279 33115 ft 499 kts 107°
2026-05-08 17:14 53.40341 -9.36085 33100 ft 498 kts 107°
2026-05-08 17:15 53.38647 -9.24827 33110 ft 498 kts 107°
2026-05-08 17:15 53.36951 -9.13629 33102 ft 498 kts 107°
2026-05-08 17:16 53.35216 -9.02263 33098 ft 498 kts 107°
2026-05-08 17:16 53.33488 -8.91014 33095 ft 498 kts 107°
2026-05-08 17:17 53.31753 -8.79802 33098 ft 498 kts 107°
2026-05-08 17:17 53.30000 -8.68551 33091 ft 499 kts 108°
2026-05-08 17:18 53.28328 -8.57892 33093 ft 499 kts 108°
2026-05-08 17:18 53.26555 -8.46661 33091 ft 499 kts 108°
2026-05-08 17:19 53.24783 -8.35511 33083 ft 498 kts 108°
2026-05-08 17:19 53.22998 -8.24353 33084 ft 498 kts 108°
2026-05-08 17:20 53.21200 -8.13192 33089 ft 498 kts 108°
2026-05-08 17:20 53.19390 -8.02029 33083 ft 498 kts 108°
2026-05-08 17:21 53.17565 -7.90845 33087 ft 498 kts 109°
2026-05-08 17:21 53.15749 -7.79793 33098 ft 498 kts 109°
2026-05-08 17:22 53.13897 -7.68597 33091 ft 498 kts 109°
2026-05-08 17:22 53.12044 -7.57467 33088 ft 498 kts 109°
2026-05-08 17:23 53.10197 -7.46434 33091 ft 498 kts 109°
2026-05-08 17:23 53.08331 -7.35368 33087 ft 498 kts 109°
2026-05-08 17:24 53.06446 -7.24262 33093 ft 498 kts 109°
2026-05-08 17:24 53.04559 -7.13209 33084 ft 498 kts 109°
2026-05-08 17:25 53.02658 -7.02145 33095 ft 498 kts 110°
2026-05-08 17:25 53.00737 -6.91037 33087 ft 499 kts 110°
2026-05-08 17:26 52.98823 -6.80035 33088 ft 499 kts 110°
2026-05-08 17:26 52.96888 -6.68978 33082 ft 500 kts 110°
2026-05-08 17:27 52.94936 -6.57897 33094 ft 500 kts 110°
2026-05-08 17:27 52.92977 -6.46845 33094 ft 500 kts 110°
2026-05-08 17:28 52.91005 -6.35784 33096 ft 500 kts 110°
2026-05-08 17:28 52.89024 -6.24746 33086 ft 500 kts 110°
2026-05-08 17:29 52.87037 -6.13737 33094 ft 500 kts 110°
2026-05-08 17:29 52.85039 -6.02731 33085 ft 500 kts 110°
2026-05-08 17:30 52.83022 -5.91689 33086 ft 499 kts 110°
2026-05-08 17:30 52.81006 -5.80719 33089 ft 500 kts 110°
2026-05-08 17:31 52.78984 -5.69778 33087 ft 500 kts 110°
2026-05-08 17:31 52.76929 -5.58715 33080 ft 501 kts 110°
2026-05-08 17:32 52.74700 -5.47937 33085 ft 498 kts 117°
2026-05-08 17:32 52.71582 -5.37756 33089 ft 496 kts 121°
2026-05-08 17:33 52.68361 -5.27686 33076 ft 496 kts 121°
2026-05-08 17:33 52.65153 -5.17579 33069 ft 497 kts 121°
2026-05-08 17:34 52.61961 -5.07470 33072 ft 498 kts 121°
2026-05-08 17:34 52.58799 -4.97471 32912 ft 500 kts 122°
2026-05-08 17:35 52.55581 -4.87356 33051 ft 512 kts 122°
2026-05-08 17:35 52.52216 -4.76820 33058 ft 517 kts 122°
2026-05-08 17:36 52.48871 -4.66372 33054 ft 516 kts 122°
2026-05-08 17:36 52.45531 -4.55989 33052 ft 513 kts 122°
2026-05-08 17:37 52.42197 -4.45675 33046 ft 511 kts 122°
2026-05-08 17:37 52.38870 -4.35430 33045 ft 509 kts 122°
2026-05-08 17:38 52.35540 -4.25220 33048 ft 508 kts 122°
2026-05-08 17:38 52.32195 -4.15005 33049 ft 509 kts 122°
2026-05-08 17:39 52.28848 -4.04827 33050 ft 510 kts 122°
2026-05-08 17:39 52.25477 -3.94618 33042 ft 511 kts 122°
2026-05-08 17:40 52.22110 -3.84461 33054 ft 512 kts 122°
2026-05-08 17:40 52.18717 -3.74264 33045 ft 513 kts 122°
2026-05-08 17:41 52.15302 -3.64046 33048 ft 513 kts 122°
2026-05-08 17:41 52.11880 -3.53848 33045 ft 513 kts 122°
2026-05-08 17:42 52.08457 -3.43692 33048 ft 512 kts 122°
2026-05-08 17:42 52.05039 -3.33590 33057 ft 512 kts 122°
2026-05-08 17:43 52.01600 -3.23467 33054 ft 512 kts 122°
2026-05-08 17:43 51.98158 -3.13379 33065 ft 512 kts 122°
2026-05-08 17:44 51.94693 -3.03255 33100 ft 511 kts 122°
2026-05-08 17:44 51.91232 -2.93198 33099 ft 511 kts 122°
2026-05-08 17:45 51.87756 -2.83132 33082 ft 512 kts 122°
2026-05-08 17:45 51.84279 -2.73100 33099 ft 512 kts 122°
2026-05-08 17:46 51.80790 -2.63074 33087 ft 513 kts 122°
2026-05-08 17:46 51.77865 -2.54701 33077 ft 513 kts 122°
2026-05-08 17:47 51.74359 -2.44697 33050 ft 513 kts 122°
2026-05-08 17:47 51.70834 -2.34682 33051 ft 513 kts 122°
2026-05-08 17:48 51.66737 -2.23092 33055 ft 513 kts 122°
2026-05-08 17:48 51.63788 -2.14784 33065 ft 512 kts 122°
2026-05-08 17:49 51.60250 -2.04848 33059 ft 513 kts 122°
2026-05-08 17:49 51.56688 -1.94886 33065 ft 513 kts 122°
2026-05-08 17:50 51.53131 -1.84970 33066 ft 513 kts 122°
2026-05-08 17:50 51.49552 -1.75026 33062 ft 514 kts 121°
2026-05-08 17:51 51.46642 -1.64602 33069 ft 517 kts 110°
2026-05-08 17:51 51.44869 -1.53476 33068 ft 518 kts 102°
2026-05-08 17:52 51.43425 -1.42148 33058 ft 518 kts 103°
2026-05-08 17:53 51.41044 -1.25188 33071 ft 519 kts 103°
2026-05-08 17:53 51.39543 -1.13824 33067 ft 519 kts 99°
2026-05-08 17:54 51.38872 -1.02373 33079 ft 519 kts 94°
2026-05-08 17:54 51.38343 -0.90798 33073 ft 519 kts 94°
2026-05-08 17:55 51.37776 -0.79368 33075 ft 519 kts 95°
2026-05-08 17:55 51.37168 -0.67937 33070 ft 518 kts 95°
2026-05-08 17:56 51.36537 -0.56390 33078 ft 518 kts 95°
2026-05-08 17:56 51.35900 -0.44915 33076 ft 518 kts 95°
2026-05-08 17:57 51.35256 -0.33452 33081 ft 517 kts 95°
2026-05-08 17:57 51.34599 -0.21990 33100 ft 517 kts 95°